Find Starlink 30572

NORAD ID: 58114 Int'l Des: 2023-161 Owner: SPXS Country: US Constellation: starlink operational
LEOCIRCULAR

当前视图

正在加载3D地球...

About Starlink 30572

Starlink 30572 (NORAD 58114) is a starlink constellation satellite (v2 mini) launched Oct 21, 2023 by SPXS of US. It operates in LEO, CIRCULAR orbit with a mass of 730.00 kg.

关于 Starlink 30572

正在加载描述...

即将过境

Passes for default location (London). Set your location on the main map for personalized predictions.

高度历史

Loading altitude history...

两行轨道根数

1 58114U 23161T 26173.34363701 .00006226 00000-0 22187-3 0 9997
2 58114 53.1600 39.4947 0001033 68.9631 291.1480 15.30244250150447
Epoch: Jun 22, 2026 • Age: 23 hours

当前状态

高度 476.2 km
速度 7.63 km/s
星下点 -0.46°S, 160.69°W
发射日期 Oct 21, 2023
运行时间 2.6 years
类型 internet

技术详情

分类 Payload
质量 730.00 kg
干质量 700.00 kg
总质量 730.00 kg
长度 0.30 m
直径 4.10 m
跨度 29.00 m
形状 Box + pan
制造商 SPXS
平台类型 Starlink V2M
阶段状态 In Orbit
所有者/国家 SPXS/US

Most Searched